Вернуться в каталог

STARLINK-37634

АктивенСвязьSSO
NORAD 69028·PAYLOAD·🇺🇸 United States

Запущен May 6, 2026 с Vandenberg Space Force Base

Loading…

Ближайшие Пролёты (ближайшие 24 часа)

TLE

СвежийSource: CelesTrak SupGP

Эпоха: Sep 15, 2026, 03:51 UTC

1 69028C 26101D   26258.16090278 -.00032954  00000+0 -10221-2 0  2581
2 69028  97.2845 111.7782 0001892  94.4672 291.1053 15.33481503    16

Отслеживайте STARLINK-37634 в реальном времени с AllMySat

Download on the App Store